RH
13 15 16 14 13 12 11 10 10 11 10 9 9 7 6 6 7 5 4 7 6 8 8 6 7 6 6 5 8 13 13 13 12 18 30 32 33 39 46 53 58 61 64 69 76 77 81 88 95 98 94 95 99 96 90 78 84 101 95 79 74 78 84 74 76 89 87 85 77 67 75 80 83 80 78 88 85 78 78 72 73 73 66 67 71 72
14 17 17 13 11 11 12 11 12 15 14 12 10 8 7 6 6 5 5 8 8 10 10 8 7 7 9 6 7 15 16 15 13 20 32 31 31 35 42 50 54 59 61 65 76 79 83 92 96 97 94 93 97 94 85 86 94 91 84 81 77 82 82 68 68 75 76 81 77 71 76 77 79 77 76 82 79 70 57 45 53 65 67 68 66 63
18 17 15 11 12 13 15 14 15 17 16 13 10 9 9 7 6 6 7 10 9 12 11 8 9 9 9 7 11 19 19 17 15 20 29 29 30 33 39 50 53 58 61 62 74 83 88 96 95 94 96 95 97 94 89 93 85 65 62 65 65 76 73 60 56 53 64 80 76 72 75 75 76 77 78 77 74 69 54 43 49 55 64 72 70 62
18 14 11 11 13 17 18 17 16 17 15 14 11 10 9 7 7 8 11 11 10 12 11 9 11 10 8 10 17 23 20 19 18 19 26 28 30 32 39 49 53 58 62 61 75 90 94 96 93 91 94 97 100 92 83 86 71 51 56 56 55 67 66 57 49 44 66 85 78 76 81 81 78 76 75 68 66 69 63 61 65 65 69 74 75 70
14 10 9 11 14 17 17 16 16 15 13 13 12 10 9 8 7 8 11 12 12 14 12 12 14 11 11 15 21 24 22 24 23 20 26 29 29 35 42 49 55 57 57 65 84 93 88 87 91 88 80 88 101 89 74 75 64 51 55 54 55 63 57 50 49 54 73 81 70 68 72 72 69 69 71 68 64 67 69 70 70 75 80 77 76 73
11 11 12 13 15 14 13 15 15 14 13 12 13 11 10 10 8 9 12 15 17 17 13 13 15 13 13 17 21 24 26 29 29 24 27 29 32 38 43 50 57 56 62 80 90 83 71 67 73 73 67 82 99 87 74 72 62 53 55 57 57 57 51 46 52 64 73 67 52 51 61 65 67 72 74 72 65 63 69 74 77 80 82 78 75 74
10 12 12 13 15 13 12 14 13 13 13 11 11 10 10 12 10 11 14 16 18 17 14 11 13 15 15 16 17 20 23 25 29 30 28 30 35 38 43 51 53 56 75 88 80 69 62 51 50 57 65 84 95 84 75 71 62 58 60 63 58 54 53 47 52 67 72 64 54 58 72 73 73 78 76 73 70 69 71 73 78 81 82 80 77 78
11 13 14 12 14 14 12 13 12 12 12 11 11 9 9 12 13 14 14 15 14 15 17 13 10 15 17 15 13 17 22 19 25 33 29 32 39 39 44 47 46 62 81 79 67 65 63 49 44 53 60 74 85 85 85 79 75 76 73 73 68 60 59 50 54 71 72 74 76 75 77 76 75 72 63 65 67 69 74 73 73 75 79 81 78 79
11 13 14 13 14 14 11 11 11 11 11 12 12 10 9 10 12 13 12 14 13 16 21 16 10 15 21 19 12 17 22 17 22 29 27 31 34 39 48 44 51 75 78 70 73 73 64 51 50 55 60 72 79 82 89 88 85 82 74 80 82 72 70 65 66 75 73 79 87 78 74 76 68 52 46 58 63 64 73 74 73 73 74 77 78 76
11 11 11 11 13 13 11 10 9 10 11 12 13 11 9 9 10 11 12 13 15 19 22 18 13 14 21 23 17 20 23 18 21 27 30 36 35 39 48 48 66 87 77 73 86 83 70 60 58 61 69 85 86 77 79 73 66 62 59 75 85 75 76 78 76 81 82 84 85 76 74 69 53 46 52 52 47 54 67 72 73 71 68 72 75 72
11 11 11 10 10 11 11 11 9 10 10 12 14 11 11 11 10 13 13 13 19 22 20 17 15 12 17 23 19 18 20 18 22 28 35 41 42 44 47 56 77 83 73 76 84 82 79 72 67 69 79 94 93 84 81 68 56 55 52 59 66 61 70 82 81 86 89 86 83 78 71 56 39 40 42 26 23 44 62 69 71 69 69 69 68 65
10 13 13 10 10 10 12 13 12 9 8 12 14 11 13 14 13 15 14 15 22 24 18 13 15 15 19 28 23 15 18 22 23 25 29 32 36 38 37 53 74 74 73 81 79 77 83 85 83 82 88 96 94 92 92 75 57 52 49 51 56 56 68 75 69 77 91 87 82 78 65 46 31 26 21 12 17 37 56 68 67 65 67 64 62 61
12 12 10 10 10 10 12 12 11 10 9 13 13 13 17 17 18 20 18 18 20 21 17 12 15 17 19 29 29 21 25 29 26 23 24 25 30 33 31 46 69 74 76 79 78 78 81 86 89 88 90 92 94 99 96 82 66 54 47 48 51 55 69 72 55 65 92 88 78 79 66 43 32 27 21 15 17 33 55 65 60 59 63 62 62 59
15 13 9 10 11 10 12 11 12 12 10 13 13 15 19 20 25 26 21 20 19 19 17 14 19 19 20 29 30 29 32 33 32 31 30 31 35 38 39 52 72 78 75 76 79 82 83 85 86 86 90 92 95 96 92 86 76 64 52 48 49 52 65 73 61 70 89 77 71 82 70 48 46 45 35 25 25 42 60 60 55 59 61 61 62 58
17 17 12 11 12 10 10 10 11 11 10 12 10 12 17 19 24 25 21 19 18 18 19 19 22 20 22 29 28 31 34 32 37 40 38 40 45 49 51 64 79 80 76 76 77 79 84 89 91 89 90 93 92 89 87 83 76 69 60 53 51 52 64 77 78 85 85 61 62 83 78 65 67 63 51 44 44 54 62 59 59 61 60 61 57 43
16 17 11 9 10 9 10 9 9 11 12 12 8 11 16 15 16 20 22 22 20 20 21 22 22 19 25 31 28 31 33 30 36 39 37 40 48 54 56 63 72 73 71 70 71 81 88 90 93 96 96 95 92 90 90 83 76 70 64 63 64 57 65 78 77 84 80 56 55 75 79 80 81 75 68 62 57 59 63 60 61 63 63 59 42 20
16 16 10 9 9 8 9 9 8 11 14 15 13 12 13 11 12 18 22 24 23 22 21 22 20 19 27 33 30 30 33 35 37 38 40 41 45 48 48 53 60 63 67 70 76 89 90 81 81 86 95 99 92 91 92 86 80 72 66 78 81 64 63 69 66 75 76 56 52 65 72 75 80 79 73 57 39 35 37 36 50 69 70 51 24 10
18 17 12 10 11 10 9 9 8 8 11 18 21 14 10 11 12 16 21 23 23 21 18 19 21 20 22 27 28 27 32 40 41 41 46 47 49 51 49 55 59 61 66 72 82 89 82 73 70 71 87 96 87 84 88 86 81 75 70 75 74 69 70 68 67 78 73 49 43 58 66 68 68 57 42 30 18 15 17 15 30 55 57 35 15 13
17 21 17 10 11 11 8 10 12 9 8 14 17 12 12 17 16 16 20 23 24 23 18 17 20 18 16 21 25 25 31 40 44 45 49 50 51 50 50 53 54 57 64 67 75 81 77 74 73 76 88 94 89 89 90 83 77 77 76 72 74 83 85 76 74 82 73 48 38 46 54 62 66 48 23 16 16 15 15 13 17 25 28 21 15 16
19 25 22 13 11 10 9 12 14 13 10 9 11 10 12 17 17 16 19 18 20 23 22 21 19 20 25 24 19 23 33 41 43 45 48 51 53 50 49 50 49 50 57 58 62 71 76 77 78 83 87 88 91 93 88 81 79 79 77 75 79 83 84 83 82 80 72 51 36 39 46 57 68 59 36 21 17 15 16 16 16 15 16 18 17 17
21 28 27 19 13 11 12 14 12 13 13 11 13 13 13 15 15 17 18 17 18 21 23 22 20 29 38 29 21 32 42 41 44 49 48 49 54 54 50 49 48 48 50 53 57 64 72 75 79 83 83 82 87 86 79 79 82 79 75 79 80 74 78 87 82 76 68 50 44 53 57 61 71 68 54 38 24 18 17 17 17 18 19 18 19 21
21 25 27 25 22 19 15 11 9 10 11 12 14 13 14 14 15 20 21 18 19 21 22 23 27 40 45 33 30 43 46 42 45 48 44 43 51 57 56 51 52 55 57 58 60 64 69 72 77 79 76 77 81 75 70 78 87 86 82 90 94 86 87 91 81 73 65 56 65 76 67 65 74 72 65 60 46 29 22 20 19 19 20 21 21 23
24 23 25 25 24 22 16 10 10 11 9 11 12 12 14 14 15 21 22 21 20 18 20 21 28 43 45 34 35 39 37 38 41 40 41 47 55 60 61 56 55 61 65 65 64 63 65 69 71 71 70 72 75 73 72 82 93 89 80 87 96 92 91 94 86 77 73 73 79 81 70 65 72 73 71 72 65 51 42 36 28 21 21 24 22 22
25 24 27 27 22 20 17 11 10 11 9 12 13 12 13 15 19 20 20 25 24 18 21 19 23 42 46 37 36 34 32 37 41 42 46 52 57 60 62 61 60 64 66 67 67 63 62 65 64 62 64 64 67 75 81 86 90 89 86 90 96 92 90 93 90 83 84 85 81 79 74 64 66 79 82 74 67 63 58 51 46 38 34 36 33 31
24 26 30 32 33 35 31 21 15 14 13 13 14 14 13 14 19 21 21 26 25 20 22 20 26 45 49 40 36 33 38 43 41 44 50 54 59 61 63 62 62 67 68 70 75 73 69 68 62 58 58 57 61 73 84 85 87 92 94 94 96 96 93 92 92 90 90 90 87 82 76 67 69 83 86 72 65 67 60 55 60 61 56 57 57 54
27 31 32 36 44 51 51 41 31 24 20 16 14 15 17 14 15 20 22 25 24 23 23 22 35 51 49 44 41 39 49 54 48 49 54 56 61 63 65 66 67 73 77 77 82 83 79 76 71 66 63 60 62 70 79 85 90 93 91 89 94 98 96 95 96 96 94 94 94 88 83 82 79 82 84 76 75 80 73 64 66 64 63 70 71 69
30 35 35 36 42 48 51 46 35 28 27 25 18 16 18 18 18 21 23 24 24 26 24 23 37 52 54 53 52 51 58 59 57 61 59 57 63 67 69 70 70 75 78 78 79 80 80 80 79 78 73 71 72 76 81 85 91 94 90 89 93 95 97 99 99 98 95 94 95 91 89 93 91 86 87 83 82 85 81 78 76 68 68 75 76 75
32 37 39 40 37 35 36 36 35 35 31 25 21 20 21 22 24 27 29 30 28 26 33 42 49 52 54 56 57 60 61 56 56 62 62 63 68 71 74 74 73 73 72 70 70 70 73 76 77 79 78 77 78 81 85 86 89 94 92 90 94 97 98 100 96 95 94 92 90 81 74 84 96 96 89 82 79 76 72 73 74 75 77 76 74 79
31 36 41 40 36 31 30 31 36 40 35 26 26 29 29 28 32 35 34 36 32 28 43 64 66 57 51 51 54 60 60 56 59 64 67 72 72 69 69 67 65 66 64 63 64 65 67 69 69 71 72 73 73 73 77 80 83 88 88 87 93 98 99 99 94 90 91 92 88 79 75 84 94 94 90 86 79 71 71 70 68 76 85 82 79 82
30 39 43 38 36 38 35 32 35 39 38 36 35 34 34 34 36 38 39 40 41 44 53 63 65 59 51 48 53 58 57 57 64 71 76 82 79 69 61 55 53 55 56 58 60 62 65 65 64 64 64 66 68 66 66 69 74 79 82 83 87 89 91 94 91 85 87 91 90 87 90 95 93 88 89 91 79 70 78 80 73 74 77 81 86 82
33 45 47 38 39 45 42 38 39 42 43 45 43 39 40 41 38 40 46 47 51 59 59 59 64 63 52 49 55 59 60 62 66 70 73 76 76 67 57 53 52 52 52 53 55 58 60 61 60 60 61 62 64 67 69 71 75 79 81 81 81 83 87 90 88 85 85 88 89 90 94 98 96 90 88 91 84 78 84 86 82 77 72 77 85 81
36 43 46 42 44 47 45 43 44 47 51 55 54 49 49 52 49 47 49 51 55 58 53 53 61 58 47 49 56 57 60 63 64 67 65 63 65 65 61 60 57 53 53 53 53 55 57 58 59 58 56 54 55 63 70 73 75 76 78 77 75 78 86 89 90 91 90 90 91 91 93 95 94 88 85 91 93 88 86 86 87 85 80 80 80 76
38 41 42 43 46 44 43 45 48 54 61 62 59 56 56 58 59 57 55 55 56 53 47 48 52 47 41 46 52 53 54 57 60 64 64 64 66 67 67 67 63 61 60 58 58 60 60 61 62 60 56 52 50 54 59 63 65 65 65 64 63 67 73 77 82 87 91 94 95 95 96 96 94 88 85 88 92 91 89 87 87 82 77 77 74 71
44 43 36 37 41 42 44 49 54 63 68 64 58 57 57 56 58 64 65 60 56 51 47 48 49 45 43 44 47 49 50 55 62 69 74 79 77 72 69 68 66 66 68 68 68 68 67 68 69 66 63 59 56 54 54 55 56 55 54 52 52 55 58 62 67 71 77 83 87 90 92 92 93 93 88 84 83 86 88 88 88 84 80 82 83 81
44 41 36 36 38 44 51 57 65 70 66 59 55 52 50 50 53 60 62 57 54 53 51 50 51 50 48 46 46 47 47 50 56 63 70 77 77 75 73 70 65 65 68 71 72 71 71 73 73 73 70 67 65 62 58 56 53 50 49 47 45 46 47 49 52 54 58 61 63 67 70 71 75 79 81 81 80 81 81 78 79 81 79 79 79 80
41 43 43 42 42 50 58 61 67 69 60 55 53 47 44 48 50 55 61 58 52 50 51 52 52 50 49 48 46 45 45 45 46 49 54 59 62 65 67 64 61 61 62 66 71 72 72 69 65 65 64 63 65 66 65 64 59 53 51 50 47 45 43 44 45 46 48 47 47 50 51 52 56 58 62 68 71 74 75 72 74 76 74 72 71 72
38 43 45 45 45 47 52 55 60 65 64 59 53 47 46 49 47 47 56 58 48 41 45 49 49 48 49 49 47 45 44 43 43 43 45 47 50 54 57 57 59 60 60 61 63 65 70 71 67 64 61 57 57 57 58 61 60 56 54 52 50 49 48 47 46 46 46 45 45 46 46 48 50 51 52 54 56 62 66 67 70 70 69 71 71 69
33 38 40 44 43 39 45 54 58 64 69 63 54 49 49 50 48 44 50 54 44 35 38 42 44 45 46 45 45 44 42 44 46 44 42 45 46 47 50 52 55 59 61 62 62 61 63 66 66 65 63 60 58 58 59 59 59 59 60 59 56 54 52 50 49 49 49 48 47 47 47 47 48 49 51 50 50 54 56 57 59 59 59 63 63 62
32 35 35 41 44 41 45 52 55 62 69 63 55 49 43 45 49 46 47 53 45 33 34 37 37 39 40 40 42 41 41 44 45 44 43 46 47 47 48 48 50 54 57 58 60 60 60 60 59 61 61 58 57 59 61 62 60 58 60 61 59 54 53 55 54 54 54 54 53 53 51 51 51 51 51 50 51 54 55 54 54 52 53 54 52 55
35 36 39 47 50 47 45 47 52 62 64 57 51 45 38 41 48 48 49 52 45 35 33 34 35 37 38 39 40 41 42 43 43 44 46 47 48 50 51 50 49 51 52 54 54 53 55 58 59 58 59 58 56 54 56 58 58 57 56 57 58 57 58 60 59 57 56 56 56 55 54 54 54 54 54 52 53 56 55 53 53 55 58 55 52 53
33 32 37 45 46 46 49 52 56 62 59 52 48 44 41 45 50 52 52 50 42 36 34 35 37 39 40 41 42 43 45 44 44 47 48 48 50 51 51 51 51 50 51 53 53 50 48 52 57 57 56 55 53 50 50 50 51 54 56 57 61 65 64 63 61 59 57 56 54 52 52 53 55 58 60 57 54 56 56 55 56 60 61 56 53 55
35 35 34 34 36 40 46 53 62 69 64 54 47 45 47 54 56 54 51 45 39 37 37 38 40 40 42 44 44 45 47 46 48 50 51 52 54 53 52 54 54 54 55 54 54 52 45 45 51 54 54 53 51 49 46 41 39 47 51 52 60 69 68 60 57 58 58 57 56 54 53 55 57 61 65 63 59 60 60 60 62 64 62 58 54 56
41 42 35 36 41 38 38 50 69 76 65 52 47 46 46 50 51 46 43 41 40 41 41 43 44 43 44 46 47 49 51 51 53 55 56 58 58 55 56 57 56 56 56 54 54 53 46 43 47 49 49 51 49 45 41 37 39 48 50 47 54 61 54 42 42 52 57 57 57 57 57 58 58 59 63 64 63 64 63 62 63 63 61 60 56 56
44 43 39 46 51 46 48 61 69 63 51 45 48 47 42 42 42 40 39 39 41 44 46 48 49 48 48 49 50 53 55 56 58 59 59 61 61 58 56 54 55 56 55 53 53 49 43 44 49 49 48 49 48 45 40 39 44 48 45 43 48 48 36 27 30 39 41 40 47 54 55 56 57 56 58 60 62 65 66 64 63 62 61 60 57 55
46 45 43 51 53 49 56 64 59 50 47 47 49 48 44 44 43 42 43 45 45 47 49 51 52 52 51 51 52 54 55 57 59 61 60 59 60 60 56 53 54 54 49 49 50 42 34 40 48 50 50 53 54 51 47 44 46 45 39 39 46 48 43 36 33 32 29 29 40 52 55 55 55 53 54 56 57 60 63 63 61 61 61 59 57 56
39 38 40 47 51 51 56 57 52 52 55 55 54 54 53 51 49 48 49 51 52 52 52 53 54 55 54 53 52 54 58 58 58 59 60 58 59 60 58 57 57 52 45 48 49 39 30 34 44 50 53 55 56 56 55 54 53 50 46 43 44 50 55 52 48 48 45 35 32 38 44 48 50 50 51 53 54 55 56 57 58 59 60 59 59 60
34 34 38 43 47 53 60 58 52 53 56 55 55 55 55 55 55 54 54 56 57 57 57 59 61 62 62 59 56 57 62 64 62 61 59 59 61 62 61 62 63 59 56 58 58 51 46 47 51 56 58 59 60 61 62 63 62 60 59 58 55 56 60 60 60 61 58 47 37 36 40 42 45 48 52 53 53 53 51 51 53 56 58 60 60 60
33 31 34 37 41 50 57 54 50 50 50 49 48 49 49 52 53 54 57 59 60 60 61 64 65 64 65 65 63 61 63 66 66 63 57 55 58 60 60 62 64 64 63 63 64 65 65 65 66 68 69 70 70 70 70 71 71 69 69 70 67 64 62 62 63 64 64 61 55 50 47 45 44 46 48 48 49 52 53 52 51 52 55 59 61 62
30 27 28 34 43 50 50 45 43 44 43 42 44 45 45 47 48 49 51 51 52 54 56 57 58 59 62 66 66 63 60 61 64 64 57 52 52 54 57 58 59 59 60 61 62 65 68 69 71 74 75 74 74 73 73 73 74 75 76 75 74 72 72 72 70 68 66 64 62 59 56 52 48 45 42 41 43 46 48 46 47 52 57 57 57 57
28 27 26 30 38 43 43 39 38 40 40 41 43 44 44 44 45 45 45 44 45 49 51 50 50 52 55 60 65 64 59 58 63 64 57 51 49 52 55 56 56 56 57 59 62 65 67 70 71 70 69 69 69 69 69 68 69 71 73 73 73 74 76 77 78 76 72 68 66 64 61 57 52 47 43 41 40 40 40 38 39 48 57 58 55 55
32 33 29 30 35 37 38 36 34 36 40 43 45 45 44 44 42 41 44 46 47 50 52 50 49 50 52 57 64 67 62 59 61 60 54 50 50 51 54 56 57 58 61 63 65 65 64 66 66 64 64 65 66 66 65 64 64 66 67 69 70 69 68 71 74 74 72 69 67 67 65 61 57 53 49 46 42 39 38 36 36 42 50 54 55 55
Wind_Speed
11 8 8 8 9 11 11 14 11 7 8 7 8 10 13 11 9 13 9 10 9 10 12 14 13 13 15 13 12 13 14 14 16 16 16 16 16 16 16 15 15 16 16 16 17 18 18 17 15 13 12 14 15 15 16 17 15 13 14 15 14 12 11 11 10 9 10 8 8 9 8 8 8 7 7 8 8 7 7 6 5 4 3 3 3 2
10 8 9 11 12 9 10 14 8 5 7 8 8 6 10 10 8 14 10 10 8 8 8 12 14 12 14 15 12 13 12 13 16 15 16 17 17 16 16 16 15 15 16 17 17 18 17 15 13 11 10 12 14 17 18 17 15 14 14 13 14 14 13 11 10 10 10 8 7 9 8 8 9 7 7 7 6 6 6 6 6 6 5 4 3 1
8 8 11 12 8 3 4 6 5 6 8 9 8 7 7 8 9 10 8 7 7 7 8 12 12 12 15 14 10 11 11 12 16 17 17 19 18 16 16 15 16 16 16 18 17 15 14 14 12 9 9 9 11 18 21 16 15 14 14 14 16 16 15 14 13 14 13 9 8 9 10 9 9 9 9 8 7 7 6 7 7 6 6 6 5 3
7 9 13 11 6 4 5 4 6 7 8 9 9 8 8 9 10 7 7 8 9 7 9 11 10 10 10 7 8 10 11 12 16 18 18 18 17 16 16 15 15 17 17 18 14 10 12 14 12 9 7 6 7 17 23 18 17 17 15 17 18 16 16 15 15 15 13 11 12 12 12 12 11 11 11 10 9 8 8 8 8 7 8 7 6 5
8 6 9 8 7 8 10 8 9 8 8 10 11 11 9 9 12 6 5 9 9 8 11 9 7 9 8 9 9 9 10 11 14 17 17 17 17 14 14 14 14 16 17 14 10 12 13 13 12 9 9 9 10 17 21 20 19 19 18 18 19 18 18 17 16 14 13 13 14 14 14 13 12 12 10 9 9 9 9 8 8 9 9 8 7 7
9 5 6 5 6 10 11 9 11 10 8 10 12 15 13 11 12 7 5 7 7 8 11 11 9 7 10 12 12 10 10 11 12 15 16 16 15 13 13 13 14 15 10 10 15 14 12 12 11 11 11 12 13 15 18 19 18 19 20 19 19 20 21 20 17 15 15 14 14 15 15 14 13 12 10 9 9 9 9 9 9 10 9 8 7 6
6 6 7 8 8 11 12 10 12 11 9 8 10 16 16 13 10 8 8 9 7 4 7 12 10 5 9 12 13 13 13 14 13 12 13 14 13 13 14 12 13 11 12 20 15 12 15 16 16 18 16 15 13 15 18 21 21 21 19 18 20 21 20 20 18 17 16 15 15 16 15 14 13 12 11 10 10 9 9 9 10 10 9 8 8 6
7 5 5 9 10 11 10 9 11 13 11 6 5 13 16 12 8 8 9 9 7 3 4 11 11 7 6 10 14 16 14 16 14 11 11 12 12 12 12 12 12 10 17 14 7 13 16 15 17 21 20 18 15 16 20 22 21 20 18 18 21 21 17 18 19 19 17 15 15 16 15 14 13 12 12 12 11 10 10 10 10 10 9 8 8 7
9 10 8 10 10 8 9 10 11 13 12 5 3 10 13 13 11 10 11 9 6 5 5 9 11 8 4 7 13 15 14 16 15 14 13 12 14 13 11 13 9 12 13 7 9 16 14 11 15 20 21 20 18 18 19 20 19 18 18 19 20 19 17 18 19 19 17 15 15 15 15 15 14 13 13 12 11 11 12 12 10 10 9 9 9 9
6 11 11 12 11 8 10 11 10 14 11 3 6 10 10 11 12 9 10 8 6 7 8 8 11 9 5 7 9 10 12 13 12 12 11 12 15 13 11 13 5 15 11 11 14 15 12 14 17 21 21 19 18 19 19 20 19 19 20 19 19 20 18 17 19 17 16 15 13 14 15 16 16 15 14 12 12 12 12 12 11 10 9 9 10 9
1 5 7 10 12 6 4 4 5 12 11 3 5 10 8 8 9 7 8 7 6 8 9 10 12 10 6 7 8 10 11 9 8 9 11 12 13 11 11 9 8 13 10 11 15 14 13 16 19 20 20 16 16 19 19 21 21 22 22 19 18 19 18 16 17 15 15 15 13 13 15 16 17 16 14 13 13 13 13 12 11 10 10 10 10 9
5 7 6 10 13 6 2 4 5 10 10 5 7 9 8 7 7 7 7 7 7 7 9 11 11 10 7 4 4 6 8 6 6 8 11 12 14 14 14 10 10 12 14 14 15 15 14 15 15 16 16 14 15 17 18 21 22 22 21 19 18 18 17 16 16 14 14 14 12 12 15 16 16 15 14 13 14 14 13 12 11 11 11 11 10 9
8 10 10 12 13 9 7 8 8 9 9 8 8 8 7 6 6 7 7 7 7 6 7 9 9 9 6 4 5 3 8 6 3 7 10 9 9 9 8 9 11 15 18 16 16 16 14 13 14 14 15 15 16 16 19 22 22 22 21 20 19 18 17 18 17 15 14 14 13 12 14 17 16 15 14 14 14 14 13 12 12 12 12 11 10 9
8 9 13 13 10 11 11 8 7 8 9 10 9 8 7 6 6 8 7 7 8 7 5 6 6 7 4 6 9 5 5 7 8 8 9 7 6 5 6 10 13 15 16 15 15 15 13 14 15 15 16 16 15 15 18 19 19 23 24 22 21 20 18 19 19 17 16 15 14 12 13 16 16 15 15 14 14 14 13 13 13 13 13 12 11 11
9 8 12 13 9 12 14 12 7 7 9 10 10 8 7 6 6 7 6 5 6 5 6 7 6 6 5 4 8 10 10 12 13 14 13 11 12 12 14 17 18 17 16 15 14 14 14 14 15 16 16 15 14 13 15 16 19 24 27 25 23 22 20 20 19 19 18 17 17 14 12 13 14 14 14 14 14 14 13 13 14 13 14 13 13 13
10 7 10 16 12 12 15 14 11 8 8 9 9 9 8 7 7 4 2 1 2 3 4 7 5 3 3 4 6 8 10 12 14 15 15 15 17 19 20 21 20 17 15 14 14 15 15 14 15 15 15 14 14 13 13 15 18 24 27 26 23 23 22 21 20 20 19 19 19 17 13 12 13 13 13 13 14 14 15 15 15 14 14 14 14 14
9 6 8 15 14 11 14 14 12 10 6 4 7 10 6 5 7 5 3 3 2 5 4 5 6 4 6 7 7 7 7 8 9 10 11 11 14 16 16 16 16 15 14 14 16 17 15 14 16 14 13 15 16 15 14 14 17 21 24 23 21 23 22 21 20 20 20 19 19 17 14 13 13 14 15 14 14 15 17 18 18 15 14 16 15 14
6 5 5 12 13 12 12 11 12 13 8 3 6 8 5 4 5 6 4 4 5 7 6 6 7 7 6 6 9 11 8 7 8 9 10 9 11 13 13 15 16 16 16 16 18 18 15 15 16 14 13 15 18 18 16 17 19 20 20 19 19 19 18 17 18 20 23 21 19 19 16 13 13 14 16 15 14 14 15 17 19 18 17 17 16 14
5 6 6 10 12 13 11 9 10 11 12 9 6 5 6 5 6 5 5 4 6 7 6 7 8 7 6 5 10 13 11 10 9 9 9 8 11 13 14 16 17 18 19 17 17 17 16 15 14 12 11 13 14 15 16 19 21 21 20 19 17 13 12 15 16 18 24 25 21 18 17 15 14 14 16 16 15 15 16 16 17 19 20 19 17 15
5 5 5 8 10 10 10 8 9 8 11 12 8 6 7 5 5 5 5 5 6 6 6 7 8 5 2 1 7 9 10 12 10 9 8 9 11 12 14 16 16 17 18 17 16 16 15 14 13 12 11 12 12 13 14 17 18 18 17 17 16 12 11 14 16 16 21 25 21 18 19 18 16 16 17 17 16 16 17 17 17 17 19 19 18 16
6 5 5 5 7 8 7 8 11 10 9 11 9 8 8 6 5 5 5 5 6 6 6 6 7 3 4 2 3 8 12 11 10 9 9 10 12 13 15 15 15 16 17 16 15 15 15 14 13 12 12 13 13 13 15 15 14 14 14 14 15 15 15 15 16 16 19 22 21 20 22 21 18 17 17 17 17 17 17 17 18 18 18 18 17 16
5 6 7 6 6 8 7 7 11 12 9 8 9 10 9 8 6 6 7 6 6 6 5 6 5 3 5 4 3 12 11 10 13 13 11 13 14 13 15 15 15 16 15 14 14 15 15 14 13 13 13 13 14 14 14 13 12 12 12 12 12 14 15 15 15 17 18 21 22 21 22 21 19 17 17 16 16 16 17 18 18 19 18 18 17 16
0 3 6 8 7 7 6 4 6 8 8 9 9 9 10 9 7 8 7 5 6 7 6 7 5 3 3 4 4 9 10 11 14 13 13 15 15 13 14 14 15 15 13 13 14 13 13 13 12 12 12 13 13 12 11 11 9 9 9 10 10 10 11 12 12 14 16 19 21 21 22 22 20 18 17 16 15 15 16 18 19 19 19 18 17 17
2 3 6 8 6 7 8 6 6 7 9 10 9 8 9 8 7 8 6 1 3 7 6 7 6 2 3 2 3 6 9 12 13 13 13 14 13 13 13 14 14 14 13 12 12 11 11 10 9 10 11 13 12 11 10 10 9 8 8 9 9 10 10 10 10 11 13 15 18 19 21 22 20 17 16 16 16 16 17 18 18 18 18 17 17 17
3 3 4 6 5 5 8 8 7 7 8 9 9 10 10 10 10 10 5 2 4 7 6 6 4 3 3 1 4 6 8 10 11 13 13 13 13 13 14 15 14 14 14 12 12 11 11 10 10 9 9 10 10 10 9 9 8 9 8 8 8 9 9 9 9 11 12 13 14 16 18 19 18 17 16 17 19 19 19 18 18 17 17 16 16 17
4 3 3 6 6 4 5 4 4 5 6 8 10 10 10 12 14 10 6 6 7 7 8 7 2 4 5 5 6 6 7 8 10 12 13 14 15 14 15 15 14 14 14 13 13 12 11 11 11 10 9 8 8 8 8 8 7 7 6 5 5 6 8 9 9 10 10 10 11 13 14 16 17 17 16 17 19 18 17 17 17 17 16 15 15 16
3 4 5 6 6 3 2 4 10 12 9 9 13 11 9 10 11 9 7 8 7 6 8 7 5 10 8 8 8 7 7 8 10 11 13 14 16 15 15 15 15 14 14 13 14 13 12 12 11 11 10 10 9 8 7 6 6 6 5 5 5 6 7 7 7 8 8 9 10 13 14 14 17 18 17 18 19 18 16 16 17 17 17 17 16 16
3 5 6 6 6 3 2 3 7 14 13 8 7 6 6 6 7 7 7 6 6 4 5 3 6 13 11 10 10 7 6 7 9 11 13 14 15 15 14 15 15 15 14 14 14 13 12 12 11 11 11 10 9 8 7 7 6 6 6 6 6 6 6 6 7 7 8 9 11 14 15 15 15 17 17 18 20 20 18 19 20 19 18 18 18 17
5 6 8 8 7 5 3 3 3 7 11 9 5 3 2 1 3 3 1 2 3 2 2 4 7 10 10 10 10 9 6 7 8 10 12 12 13 15 15 15 15 15 14 14 14 13 12 12 12 11 11 10 9 8 7 7 6 6 6 5 4 5 5 6 7 7 7 9 10 12 14 15 14 14 14 15 17 19 19 21 22 21 18 17 18 19
4 3 8 9 7 6 4 3 5 3 5 7 6 7 8 6 7 7 7 6 5 7 10 12 12 10 8 8 9 8 7 8 9 9 10 8 8 12 15 14 14 14 14 13 14 13 13 13 12 12 11 11 10 9 9 8 7 6 6 5 5 4 4 6 7 7 7 8 8 9 11 12 12 12 12 13 14 16 17 19 21 21 18 15 17 18
3 2 6 7 6 6 6 3 2 1 4 5 7 9 10 8 8 10 10 9 8 9 11 14 13 9 7 7 9 8 7 9 11 12 12 8 7 9 13 13 13 13 13 13 13 13 12 12 12 12 11 11 11 10 9 9 8 7 7 7 6 5 5 6 7 7 7 8 7 7 9 8 7 8 9 9 9 13 16 17 19 20 18 18 18 17
4 3 5 6 6 6 7 8 6 2 2 6 9 8 6 7 8 8 8 9 8 5 7 9 9 6 6 9 12 12 10 10 12 14 14 14 13 13 13 13 13 13 13 13 13 13 12 12 11 11 10 10 10 9 9 9 9 8 7 6 6 6 5 6 8 8 8 8 8 8 8 8 7 7 7 6 7 10 13 15 16 15 15 17 19 19
4 4 5 6 6 5 6 7 6 4 2 6 7 4 2 5 4 5 7 9 10 7 3 6 6 6 7 9 11 11 11 11 12 14 14 15 19 22 21 17 15 14 13 13 14 13 12 12 12 12 12 11 10 9 9 9 9 8 8 7 7 6 5 6 7 7 7 7 7 7 7 7 7 6 7 7 7 7 9 11 11 11 11 12 15 17
4 5 6 6 6 4 6 7 5 6 6 3 1 3 4 5 5 4 6 7 8 8 6 8 8 8 8 9 10 11 12 12 14 16 16 16 19 23 24 22 21 20 18 16 15 14 12 12 12 12 13 13 12 12 11 10 10 9 9 9 9 8 7 7 7 7 7 7 6 6 6 6 6 6 6 6 6 6 7 8 8 8 8 9 10 10
6 7 4 3 4 2 5 7 5 6 4 1 3 3 4 6 9 10 8 6 7 8 9 10 10 9 10 12 14 15 16 17 18 18 16 15 16 17 16 15 16 17 18 18 16 14 12 11 11 12 13 13 13 12 12 11 10 10 9 9 8 8 8 8 9 9 8 8 7 7 6 6 6 5 5 5 5 5 5 5 5 5 6 7 7 7
4 5 3 2 3 3 4 6 4 1 3 4 3 4 5 8 11 9 6 5 6 7 9 10 10 11 12 14 16 17 19 19 20 20 18 16 15 15 14 13 13 14 15 16 16 16 15 13 11 10 10 11 11 11 11 11 10 10 10 9 9 8 8 8 8 9 8 8 7 7 6 6 6 5 5 5 5 5 4 4 4 4 5 5 5 6
2 2 3 4 4 3 4 5 3 3 3 4 5 4 3 3 4 3 4 5 5 6 10 11 11 12 14 14 16 17 18 17 15 15 16 16 15 15 15 15 14 14 14 14 14 15 16 15 14 12 9 8 9 9 10 9 8 7 7 7 7 8 8 8 8 7 7 6 6 5 5 5 4 4 5 5 5 5 5 5 6 5 5 6 5 6
2 1 2 3 3 3 4 5 4 4 4 3 4 4 4 4 4 2 5 7 4 6 11 13 12 13 14 15 16 16 14 11 9 9 12 13 13 14 14 14 14 14 14 14 13 13 14 13 13 13 11 9 8 9 10 10 7 6 5 5 5 6 6 6 6 5 4 4 5 5 5 4 3 3 4 3 4 5 5 5 6 6 6 6 6 6
4 2 2 3 3 3 5 6 4 2 1 2 3 3 3 2 4 3 4 5 5 7 10 11 11 12 13 13 13 10 5 3 6 8 10 11 11 12 13 13 13 13 13 13 13 14 14 14 13 13 13 11 9 9 11 11 9 7 6 6 4 3 3 3 3 3 2 2 2 2 2 2 2 2 2 3 3 4 5 4 4 5 6 6 7 7
6 5 4 5 6 6 7 6 2 2 3 3 3 2 1 1 3 5 6 6 6 7 9 9 9 9 9 8 7 4 4 3 8 11 11 11 11 11 12 12 12 12 12 12 12 12 12 11 11 12 12 11 10 9 9 9 9 7 7 6 4 3 2 1 2 3 2 2 2 2 2 3 4 4 4 5 5 6 6 6 6 7 7 7 8 9
5 5 5 7 7 6 6 5 1 4 4 4 3 3 3 1 3 4 2 6 7 7 7 8 8 7 6 5 5 9 10 10 13 13 10 9 10 10 10 10 10 10 11 11 11 10 9 8 8 9 9 9 9 9 8 7 7 7 6 5 3 1 2 2 3 4 4 4 4 4 4 4 5 6 6 7 7 8 9 9 9 10 10 10 10 11
3 3 5 7 6 5 5 5 2 4 3 5 3 3 5 4 2 3 5 9 10 8 7 9 8 7 7 9 11 12 13 13 12 11 10 9 9 9 9 9 9 9 9 10 10 9 9 9 8 9 9 9 9 9 8 8 8 7 6 5 4 4 4 5 6 6 6 6 6 5 5 6 6 7 7 7 8 9 9 9 10 11 11 12 12 13
3 3 5 2 2 4 5 4 1 4 2 5 2 2 4 3 4 8 10 11 12 10 10 10 9 8 8 10 11 11 11 12 10 9 9 9 8 9 9 9 9 9 9 9 9 9 10 9 8 9 9 9 10 10 11 11 10 8 8 7 7 9 11 12 11 9 9 9 8 8 8 8 9 9 10 10 11 11 11 11 11 11 12 13 13 14
4 4 3 2 4 4 3 1 2 4 5 4 3 5 6 7 8 9 10 12 11 11 11 10 9 8 8 8 9 8 8 9 9 8 8 8 7 8 8 8 8 8 8 9 8 10 11 10 9 10 10 9 11 12 12 13 11 11 12 12 12 14 17 17 16 15 16 16 14 12 11 11 11 11 12 12 13 14 14 14 13 13 14 14 15 15
5 4 3 5 5 4 4 5 4 5 8 10 10 10 10 10 9 9 11 12 10 9 9 9 8 7 6 6 6 6 6 8 8 7 7 6 6 7 7 7 7 7 9 9 9 11 13 12 10 11 10 9 10 11 12 13 13 14 16 16 15 15 17 18 18 19 20 20 17 15 13 13 13 13 14 14 14 16 17 17 18 18 18 18 18 19
5 4 4 5 7 8 9 8 7 8 10 11 12 12 11 10 10 10 12 11 10 8 8 8 7 6 6 5 5 5 6 7 6 5 6 6 5 6 6 6 7 9 10 10 11 14 15 14 12 12 11 11 11 12 12 13 14 15 17 17 17 16 15 16 17 17 19 21 21 20 18 17 16 16 15 16 16 17 18 19 20 21 21 21 21 21
4 2 2 4 5 4 5 7 8 8 9 10 10 10 10 10 10 10 10 10 9 8 8 7 6 6 6 6 6 5 5 5 5 5 5 5 5 5 6 6 7 9 10 10 12 14 15 14 13 12 13 13 12 12 12 12 13 14 15 15 16 16 15 16 16 17 18 20 21 21 20 19 19 18 18 17 17 18 19 20 21 22 23 23 23 24
3 2 1 2 2 3 6 10 10 9 10 9 9 9 9 9 9 9 9 10 9 8 7 7 6 6 6 5 5 5 4 3 4 5 5 5 4 4 5 6 7 9 9 10 11 11 12 12 12 12 13 13 12 12 12 12 13 13 14 15 16 16 17 17 17 18 19 20 20 20 20 20 20 21 21 21 20 21 21 21 22 23 24 24 24 26
2 3 0 3 5 6 8 10 10 9 8 8 8 8 8 8 8 8 7 7 6 6 5 4 4 5 5 4 4 4 3 3 3 4 5 5 4 4 5 7 8 8 9 10 10 11 12 12 12 12 13 13 13 13 12 13 13 12 13 14 14 15 16 16 17 18 19 20 21 21 21 21 21 22 23 23 23 24 24 25 25 24 24 25 26 27
3 1 1 1 3 4 5 7 6 4 5 7 7 7 6 6 6 5 4 3 3 3 3 2 2 2 2 3 3 3 3 2 2 3 5 5 5 6 7 8 9 10 11 11 12 12 12 12 12 13 14 14 14 14 14 13 13 13 13 13 13 14 15 16 16 17 17 18 19 20 20 20 21 21 22 23 24 25 25 27 28 27 28 28 29 28
4 4 3 1 1 4 6 7 4 4 6 9 8 6 5 4 2 2 2 2 1 1 2 3 3 3 2 2 2 2 2 2 3 4 5 5 6 7 8 9 11 12 13 13 12 12 12 13 14 15 15 15 15 15 15 15 16 16 16 15 15 15 16 17 18 18 17 16 16 17 18 19 19 19 20 21 23 24 24 25 27 29 29 30 30 30
Wind_Direction
200 210 219 219 224 210 211 226 236 288 308 291 250 212 221 228 203 223 210 150 186 212 206 220 226 221 230 225 189 185 201 208 218 207 189 199 200 196 198 192 193 196 197 199 198 197 192 184 176 171 179 183 181 172 155 156 171 160 145 163 181 184 185 185 181 162 139 141 152 142 136 137 136 142 134 115 109 111 109 107 100 89 82 81 74 53
208 223 222 218 231 220 207 226 243 305 300 278 270 235 221 233 211 207 192 142 177 227 215 217 231 225 229 234 196 177 199 205 215 206 189 204 207 198 199 194 195 196 197 202 200 196 187 171 160 164 177 184 178 161 156 165 166 159 162 167 174 179 179 175 169 155 143 147 149 139 146 149 137 133 124 116 118 118 125 135 131 122 104 87 85 73
214 230 231 218 220 229 208 232 252 261 257 250 256 253 230 228 221 197 161 141 180 210 231 223 226 230 231 228 183 175 203 208 214 209 199 207 206 199 198 193 195 198 201 204 198 192 185 163 150 168 179 184 179 150 147 160 166 173 184 184 182 173 167 170 163 154 150 153 160 154 151 143 132 134 134 130 123 115 117 119 123 131 116 95 78 57
210 218 227 213 168 193 222 231 245 241 239 243 242 243 237 218 219 203 166 198 202 202 242 236 223 231 226 201 168 185 206 210 213 210 204 207 207 202 196 195 200 201 202 204 191 158 148 144 145 171 180 172 163 147 150 160 164 173 185 184 181 168 164 169 159 154 158 162 167 160 149 145 144 144 142 134 119 111 109 106 111 115 106 100 90 77
236 196 203 197 153 197 223 216 226 235 225 229 236 240 241 223 223 226 184 201 200 207 241 250 235 221 199 189 190 190 204 210 205 204 204 206 208 199 191 199 204 207 211 200 155 112 122 137 147 169 187 185 163 144 152 160 160 166 174 176 176 171 167 163 157 163 167 165 166 160 153 153 148 138 131 124 116 113 110 107 111 108 103 104 98 90
242 137 144 198 185 205 221 214 213 224 228 221 227 239 252 247 230 214 177 193 209 211 212 224 238 213 185 200 200 184 196 206 200 202 202 203 204 195 193 200 203 211 205 136 110 110 137 158 175 192 195 185 163 143 150 159 164 171 172 173 177 175 166 158 161 171 171 169 166 158 152 146 138 130 128 127 121 119 119 114 111 108 109 111 102 96
230 142 164 214 214 212 218 223 212 212 236 231 206 220 246 263 243 210 195 204 226 234 194 208 234 221 186 201 198 185 193 201 198 198 200 200 199 200 200 199 210 199 116 93 103 137 159 170 188 202 196 179 158 146 155 162 169 172 168 171 173 168 160 157 165 172 174 174 163 151 145 139 135 133 134 132 125 123 124 120 116 113 111 109 106 103
220 188 191 203 210 215 216 227 209 202 230 248 189 203 224 245 240 223 226 221 228 258 209 212 231 232 195 196 190 182 192 202 193 188 200 202 200 208 205 202 215 174 116 95 121 156 166 179 193 199 192 182 167 152 156 161 163 159 159 168 168 165 163 163 170 176 175 172 160 150 144 138 138 141 141 137 131 128 125 119 115 112 108 105 106 101
204 214 202 194 208 215 215 224 204 201 226 245 217 211 214 225 225 223 234 235 231 242 232 215 221 229 214 199 185 176 195 204 189 187 193 197 204 205 206 216 204 140 140 170 158 152 163 173 188 196 188 180 174 160 156 158 151 144 158 170 169 170 171 169 177 179 171 168 161 150 144 140 145 147 140 136 134 133 128 122 120 117 116 116 111 104
183 211 203 195 208 215 220 222 194 198 218 215 221 223 214 222 225 225 234 235 226 236 244 219 208 222 212 185 179 180 205 205 186 183 178 191 206 195 204 227 150 113 154 184 155 154 163 165 181 191 181 172 171 169 167 164 159 160 170 176 174 175 176 176 182 180 169 165 158 150 148 147 148 144 138 140 141 135 131 128 125 121 117 120 119 115
140 202 207 205 216 230 233 226 187 204 211 184 217 221 211 219 222 225 235 237 229 229 243 227 209 222 214 173 190 205 204 198 186 170 162 179 191 183 208 221 108 114 167 172 151 150 154 168 182 183 176 166 164 173 173 166 169 177 177 178 180 180 181 181 183 181 170 163 156 152 153 151 149 146 145 148 144 137 134 131 127 124 124 126 127 125
219 203 207 218 231 256 269 209 211 224 222 210 224 218 205 210 212 217 220 224 233 231 236 225 205 217 228 180 197 190 146 153 193 173 168 179 174 178 200 190 130 145 171 164 152 147 148 163 173 171 168 161 164 176 172 165 174 183 179 178 183 185 187 185 184 187 176 162 157 155 154 152 149 148 149 147 144 143 140 136 135 134 134 133 129 128
215 207 199 209 221 232 241 215 193 215 226 219 226 223 211 209 209 221 217 212 229 232 232 225 203 211 221 121 102 82 90 101 138 155 170 177 162 170 179 151 141 158 166 163 152 148 151 157 159 161 161 163 173 180 173 169 177 184 184 185 188 192 195 188 182 188 183 166 159 156 155 154 149 146 148 148 146 144 143 144 144 141 140 139 135 134
207 208 203 206 202 205 231 232 182 191 211 213 220 221 216 208 209 226 223 214 225 219 201 214 212 216 211 121 126 133 112 119 120 130 155 161 152 162 145 136 150 161 162 157 147 147 152 153 154 158 163 173 182 182 176 173 175 182 188 195 196 196 199 190 180 183 184 170 156 156 159 154 149 148 148 149 148 147 150 152 148 145 146 145 143 142
206 207 201 207 193 185 214 239 229 196 198 213 225 228 228 219 217 232 237 233 237 219 184 187 213 225 218 153 138 144 145 143 137 137 147 154 155 155 151 153 158 157 152 150 149 153 156 156 158 159 162 169 174 178 175 169 171 180 188 194 197 198 196 191 183 177 177 171 157 157 164 158 153 151 148 149 151 152 155 155 151 151 151 149 148 149
221 219 195 204 205 189 203 229 244 229 206 208 220 227 228 225 228 230 231 298 323 280 210 186 213 229 154 134 133 143 147 142 137 139 145 149 146 143 147 150 148 143 144 149 150 151 153 158 164 167 163 158 161 170 175 173 174 180 185 188 193 195 190 187 185 176 172 171 162 158 163 165 160 152 148 153 159 162 163 161 156 153 153 155 154 152
227 231 186 192 203 206 209 216 224 234 229 193 219 234 229 233 252 247 199 145 154 256 241 196 218 196 144 155 170 166 148 130 127 123 124 126 125 128 132 132 128 127 131 137 139 140 144 153 165 171 165 159 161 166 176 182 182 184 186 184 184 189 187 186 186 180 176 172 165 164 167 171 167 157 156 164 171 173 171 165 159 154 160 164 157 151
236 258 194 183 198 209 219 231 229 231 238 212 217 235 234 237 260 267 245 190 197 234 230 207 218 207 191 185 170 172 166 139 127 109 101 102 102 102 105 109 112 113 114 122 130 132 136 150 164 169 166 166 168 168 171 175 177 184 189 188 186 189 191 192 190 187 185 178 170 169 173 176 174 166 165 172 177 176 174 171 165 162 166 167 158 153
225 258 218 192 210 206 203 237 242 228 234 246 253 240 231 235 232 231 243 233 223 234 231 214 212 222 237 193 165 182 178 145 130 115 107 104 102 102 103 107 109 108 110 116 123 129 135 146 157 161 158 160 161 162 166 168 171 180 189 191 188 188 192 195 194 191 190 187 179 172 175 181 181 176 174 176 180 180 179 179 174 168 167 165 162 161
203 256 227 199 223 210 187 215 232 216 220 236 259 251 227 240 248 229 226 237 234 229 232 227 215 221 288 174 176 178 150 133 131 125 120 114 112 114 113 112 114 113 114 115 119 128 135 142 150 154 152 151 150 153 157 159 163 170 179 177 170 170 179 186 189 187 187 189 186 181 186 190 189 187 182 180 185 186 184 183 180 175 172 169 167 166
197 226 232 222 240 226 199 209 222 222 216 214 227 236 225 221 233 238 233 244 254 239 226 232 220 160 46 359 177 125 115 126 136 137 138 132 125 119 115 116 117 112 113 117 121 126 131 137 144 145 146 149 152 155 150 148 150 154 162 161 157 164 174 179 183 181 183 188 189 190 196 197 194 194 189 186 189 190 189 188 184 181 179 174 172 171
210 214 228 235 235 229 225 223 224 231 238 226 215 222 231 225 216 229 233 228 243 251 245 242 224 110 41 340 122 124 130 146 150 151 146 138 133 121 114 117 116 112 115 122 128 131 133 135 136 136 142 145 147 153 151 146 145 146 153 155 150 159 170 176 179 179 182 189 191 194 198 196 195 197 195 192 193 193 194 192 189 187 184 181 181 180
120 239 244 233 226 241 256 278 267 254 258 259 241 227 230 231 228 236 239 231 233 239 246 252 241 105 37 348 79 131 152 144 140 140 128 127 130 123 118 119 119 119 124 129 133 136 136 136 137 137 139 138 139 146 146 139 140 147 155 157 154 159 164 165 170 175 179 186 190 193 195 195 196 198 198 197 198 197 195 195 194 192 189 189 190 188
124 226 256 245 245 279 276 264 265 259 253 254 252 243 236 236 244 244 241 285 260 242 241 248 239 119 75 16 86 144 148 130 130 131 121 120 122 124 126 125 125 128 133 136 137 141 142 141 143 144 139 137 139 141 135 129 133 140 143 150 158 163 160 155 160 170 177 184 189 190 193 197 198 197 197 198 203 204 198 197 198 195 194 194 195 195
181 205 256 256 254 274 257 237 228 232 239 242 239 243 246 244 249 252 242 213 247 253 258 257 237 116 99 116 130 139 134 126 126 124 122 125 126 130 133 130 132 136 139 142 141 144 152 154 155 156 149 145 146 140 130 129 137 139 140 150 160 162 162 163 165 172 181 188 191 193 195 197 198 199 199 200 206 209 202 199 199 196 196 195 195 196
203 198 214 254 256 251 247 253 277 268 254 245 237 241 252 246 246 257 257 235 240 245 249 259 240 114 118 125 125 129 136 134 118 113 124 136 135 134 133 132 134 137 138 141 140 143 150 155 157 160 157 151 147 140 132 130 136 142 154 175 179 169 169 172 177 181 185 188 191 193 193 194 198 203 204 202 203 201 197 200 204 201 198 197 198 199
202 201 199 225 234 236 239 275 307 319 307 255 232 232 247 246 244 255 254 250 254 241 243 246 175 144 137 132 136 143 151 144 127 123 131 133 129 128 130 132 133 133 134 135 137 138 137 140 142 144 147 146 143 142 138 131 131 140 156 172 175 171 172 178 184 186 185 185 186 188 189 193 198 201 204 206 204 197 189 195 205 206 202 201 199 201
186 193 177 175 177 176 179 232 308 329 326 291 237 221 240 232 228 240 247 264 273 254 275 303 141 142 140 137 134 128 131 131 127 132 135 131 130 132 132 131 129 128 128 128 131 131 127 127 128 129 133 135 138 139 135 133 137 135 140 152 159 162 167 172 178 182 184 182 184 192 197 200 202 202 207 212 212 212 208 205 207 206 206 209 207 205
227 195 165 167 161 142 119 96 39 347 336 342 16 27 354 129 167 197 200 335 294 210 125 65 92 112 122 124 109 88 93 106 107 119 124 122 130 135 135 136 134 131 128 125 125 127 127 126 127 128 128 127 133 136 129 132 136 126 131 149 155 156 157 156 164 176 180 177 183 193 196 200 202 204 211 214 215 221 221 215 213 209 205 210 212 210
248 180 165 191 189 164 158 85 74 45 341 349 5 2 9 48 83 79 58 46 67 99 108 106 97 86 87 91 79 69 79 94 95 100 111 125 146 144 137 135 133 130 130 128 126 127 129 128 127 127 128 127 128 132 131 132 132 126 131 138 132 139 150 144 152 165 169 169 176 181 183 192 201 203 209 217 221 225 221 215 216 217 215 214 215 216
226 189 166 194 211 196 195 195 132 63 345 329 326 337 351 10 44 57 43 35 68 98 108 105 95 83 85 95 99 95 86 89 82 68 73 98 134 136 127 125 124 123 126 128 126 126 126 127 126 126 128 129 124 121 120 123 128 128 129 130 127 133 148 150 149 154 156 154 154 159 164 168 175 185 196 207 212 212 210 213 218 221 218 218 221 222
197 187 167 190 223 219 201 207 203 159 356 308 292 298 337 6 22 43 38 27 37 74 119 113 95 94 119 119 111 101 87 86 80 64 63 73 75 77 91 108 117 119 123 126 124 119 114 112 114 115 121 129 127 121 116 114 116 117 116 120 121 121 131 141 142 139 139 140 139 143 149 146 148 167 175 175 180 187 197 211 222 221 217 220 227 232
201 188 182 196 231 227 193 197 192 168 228 272 267 251 98 79 57 39 37 29 20 13 64 110 97 99 120 121 109 97 84 74 65 58 58 61 60 58 60 67 75 83 96 108 108 102 98 100 104 106 107 111 116 118 117 111 108 107 105 106 107 110 113 116 121 120 119 125 133 138 141 138 142 160 172 180 189 189 192 203 214 220 219 222 229 233
230 227 208 205 234 228 170 162 175 203 224 250 130 122 109 122 134 87 55 46 39 39 62 87 95 98 102 107 107 98 90 81 68 61 56 54 58 62 59 53 52 55 60 70 81 86 92 95 93 88 86 88 94 102 105 103 102 99 96 96 98 99 102 105 107 106 107 113 123 128 131 131 134 146 166 186 195 193 196 201 204 210 211 213 220 221
226 232 237 227 231 207 138 157 198 225 220 78 84 125 117 119 120 103 83 71 75 87 93 91 98 101 95 99 105 101 97 93 86 80 74 64 64 72 71 61 59 62 61 60 61 64 70 77 79 80 77 73 74 81 84 84 87 89 88 89 93 93 95 100 102 104 104 105 108 112 118 123 127 134 146 160 168 175 190 199 199 199 196 201 206 197
230 221 245 246 196 147 155 190 208 183 110 104 121 147 140 138 135 118 94 88 102 118 116 107 110 113 110 111 111 107 104 98 89 86 86 83 81 85 88 83 77 74 72 70 66 62 59 57 61 74 85 87 86 86 81 75 74 80 82 80 82 85 89 93 96 98 101 102 104 108 111 116 121 127 135 141 145 152 158 152 151 154 152 162 174 166
316 207 211 220 198 185 214 209 166 123 147 143 131 128 116 133 152 142 114 114 124 133 130 128 129 127 126 125 121 119 116 104 91 86 87 90 92 91 89 86 80 71 66 68 70 72 73 67 59 58 65 83 95 96 90 80 65 62 70 71 75 78 78 84 87 87 91 97 99 101 104 111 118 124 133 142 146 150 148 137 138 145 143 147 152 150
333 306 265 243 209 213 253 238 194 185 197 151 107 63 27 24 9 20 113 114 117 137 135 134 136 137 137 138 141 146 140 112 91 88 88 88 90 89 88 84 79 74 67 63 60 63 67 66 63 61 58 62 75 80 73 57 30 24 36 39 55 68 65 67 67 65 77 88 86 93 104 107 116 131 145 159 161 164 165 154 153 159 160 166 171 170
215 226 273 270 234 220 254 256 235 230 247 120 88 33 9 9 346 309 183 146 133 143 139 136 139 140 141 144 148 158 175 149 113 104 95 89 84 82 81 77 74 72 68 64 60 53 46 42 44 48 45 41 49 65 62 44 28 34 43 34 39 67 71 62 49 40 56 72 67 98 127 130 147 167 182 197 195 189 186 182 188 195 194 197 198 194
216 217 223 242 246 237 240 252 259 72 75 89 80 32 18 22 310 264 212 160 141 153 149 143 143 137 137 153 148 95 25 62 113 109 101 94 85 76 72 69 67 66 61 57 55 50 43 36 35 38 36 30 28 37 41 33 28 31 34 37 54 86 84 31 354 347 334 308 295 279 255 238 239 240 237 237 237 228 224 227 231 223 212 211 212 208
226 230 228 235 244 243 239 244 215 96 72 36 24 15 354 301 240 235 181 125 135 155 145 130 135 139 131 124 96 74 66 78 98 105 102 94 83 71 65 58 53 52 49 45 43 41 37 32 27 26 26 19 14 14 12 11 15 15 16 27 42 34 5 341 314 309 310 302 292 287 281 265 257 255 250 248 248 244 242 239 233 224 217 219 221 218
248 245 243 243 248 250 245 240 170 100 33 339 353 29 342 308 224 132 106 115 124 124 112 107 114 126 116 91 81 86 90 91 96 99 91 82 71 59 51 44 40 39 35 33 29 18 14 19 13 6 7 1 353 354 346 336 338 343 339 338 337 321 302 293 293 299 305 303 293 288 282 270 263 259 254 250 249 247 243 235 226 222 218 220 224 223
5 279 248 256 299 269 250 249 155 91 30 318 318 76 6 359 112 123 124 125 119 110 108 109 107 111 113 102 95 97 96 92 90 85 74 67 56 45 35 26 24 22 16 19 16 356 352 2 357 345 348 343 333 331 326 320 322 322 309 303 306 297 284 282 288 292 290 286 283 285 284 277 269 264 259 254 248 243 239 231 226 224 221 221 224 223
17 311 273 39 8 304 276 319 46 71 56 19 35 79 75 81 107 123 125 123 119 114 111 106 102 105 112 115 112 105 92 82 74 65 58 48 35 28 22 14 12 7 358 0 356 337 336 346 342 331 330 328 322 318 315 312 309 303 297 295 294 290 285 284 285 282 278 277 278 280 278 274 271 267 262 257 249 241 238 235 232 230 228 226 227 226
41 31 48 62 49 33 58 83 91 80 68 62 67 81 88 90 94 97 101 106 110 110 108 106 103 100 104 115 117 99 77 65 57 49 41 31 19 10 4 0 356 345 338 339 331 320 321 327 327 323 321 320 316 310 306 304 300 295 294 292 291 289 287 286 283 279 276 274 273 274 273 272 270 266 261 257 251 245 242 239 236 235 234 232 233 233
72 74 74 90 102 91 80 90 102 94 84 79 79 82 85 85 87 91 97 100 99 98 101 106 105 95 86 90 93 75 57 48 41 33 21 12 2 353 351 349 340 332 330 330 323 317 317 320 320 318 315 311 308 306 302 299 296 293 292 290 288 287 285 284 282 278 274 270 267 266 267 267 266 264 261 257 252 249 247 244 241 240 238 237 238 239
74 45 73 126 149 133 99 102 107 105 104 101 97 96 94 90 93 101 105 104 104 103 101 97 95 87 74 66 61 54 47 40 30 19 9 360 353 349 346 344 339 334 333 331 325 322 323 323 321 317 314 310 307 303 299 294 291 289 288 286 283 280 279 278 277 275 273 272 270 267 264 263 261 258 256 254 252 251 249 246 244 243 242 241 242 241
45 336 35 107 126 120 118 122 122 117 115 112 107 107 106 101 101 103 104 106 107 103 97 93 86 74 65 60 55 47 40 32 22 11 360 350 347 348 346 342 337 332 329 327 324 322 322 321 317 313 311 309 307 303 298 293 289 285 282 280 278 276 276 276 274 272 271 270 269 265 262 259 257 255 254 254 253 250 248 246 248 249 248 245 242 241
300 271 315 79 99 112 125 135 136 130 127 122 111 105 104 105 106 102 102 109 107 93 82 79 72 63 57 49 42 32 19 16 13 0 348 341 339 340 338 333 329 326 325 323 320 316 313 311 310 309 308 308 307 305 301 296 292 289 286 283 281 280 278 276 274 272 270 269 268 266 264 261 259 256 255 254 253 251 250 250 250 250 250 248 247 248
295 296 35 128 153 139 133 139 137 125 127 129 119 108 104 106 109 105 97 97 93 73 52 33 32 45 44 28 18 10 6 9 2 349 340 335 336 336 334 331 328 325 322 319 316 314 312 310 309 308 306 306 305 303 301 299 297 296 293 290 288 287 285 282 279 275 273 271 268 266 265 263 260 258 256 254 252 252 252 251 250 248 249 251 250 251
359 10 22 27 106 107 120 131 115 74 105 122 123 121 121 118 114 116 108 89 66 39 17 4 0 2 2 1 5 10 6 358 350 346 338 333 335 335 332 330 327 324 321 319 317 315 314 311 309 307 304 304 303 301 299 297 294 293 292 289 288 286 284 283 282 280 277 273 269 266 264 262 260 259 257 255 254 252 251 251 250 248 249 251 251 252